Regional Weather Roundup
Issued by NWS

Home | Current Version | Previous Version | Graphics & Text | Print | Product List | Glossary On
Versions: 1 2 3 4 5 6 7 8 9 10 11 12 13 14 15 16 17 18 19 20 21 22 23 24 25 26 27 28 29 30 31 32 33 34 35 36 37 38 39 40 41 42 43 44 45 46 47 48 49 50
667
ASUS45 KCYS 282110
RWRWY

WYOMING REGIONAL WEATHER ROUNDUP
NATIONAL WEATHER SERVICE CHEYENNE WY
300 PM MDT SUN AUG 28 2016

NOTE:  "FAIR" INDICATES FEW OR NO CLOUDS BELOW 12,000 FEET
WITH NO SIGNIFICANT WEATHER AND/OR OBSTRUCTIONS TO VISIBILITY.

WYZ001-282200-
YELLOWSTONE NATIONAL PARK

CITY           SKY/WX    TMP DP  RH WIND       PRES   REMARKS
LK YELLOWSTONE   N/A     71  26  18 VRB7      30.35R
W YELLOWSTONE  NOT AVBL

$$
WYZ002>013-054>058-071-098>099-282200-
NORTHERN WYOMING

CITY           SKY/WX    TMP DP  RH WIND       PRES   REMARKS
JACKSON        SUNNY     79  27  14 W9G22     30.25S
CODY           FAIR      84  34  16 S7        30.10S
GREYBULL       FAIR      87  27  11 S5        30.04F
WORLAND        FAIR      88  25  10 N5        30.05
SHERIDAN       FAIR      90  32  12 VRB3      30.03F
BUFFALO        FAIR      86  27  11 VRB3      30.11R
GILLETTE       FAIR      88  26  10 N9        30.05S
HULETT         FAIR      90  32  12 CALM      30.04F
NEWCASTLE      FAIR      86  28  12 S3        30.05F

$$
WYZ014>020-022>026-101>103-282200-
CENTRAL WYOMING

CITY           SKY/WX    TMP DP  RH WIND       PRES   REMARKS
BIG PINEY      FAIR      81  27  14 NW14G22   30.29F
PINEDALE       FAIR      77  27  15 NW13G18   30.30F
DUBOIS         FAIR      77  23  13 NW15G23   30.27S
LANDER         FAIR      86  28  12 NE8       30.13F
RIVERTON       FAIR      84  27  12 VRB6      30.14F
CASPER         FAIR      85  26  11 SW16G22   30.13F
DOUGLAS        FAIR      88  27  11 NW12      30.11F

$$
WYZ021-027>030-104>119-282200-
SOUTHERN WYOMING

CITY           SKY/WX    TMP DP  RH WIND       PRES   REMARKS
EVANSTON       PTSUNNY   79  26  14 NW13G18   30.31F
FORT BRIDGER   FAIR      82  24  11 W7G16     30.33F
ROCK SPRINGS   FAIR      80  21  11 W13G21    30.27F
DIXON          FAIR      81  27  13 CALM      30.28F
RAWLINS        FAIR      80  22  11 SW13G21   30.25F
SARATOGA       FAIR      79  27  14 NW14G22   30.28F
LARAMIE        FAIR      74  26  16 E3        30.27F
CHEYENNE       FAIR      85  30  13 VRB5      30.19F
TORRINGTON     FAIR      92  26   9 MISG      30.04F
PINE BLUFFS    FAIR      79  43  27 SE9       30.15S

$$




USA.gov is the U.S. government's official web portal to all federal, state and local government web resources and services.